• In Netherlands
  • List of Countries
  • For 7 days
  • Water Temperature
  • Satellite Maps
  • Weather Map
  • Weather Widgets
  • user-avatar
    Login

    Hourly Weather Klagenfurt

    Today, 19 August, Saturday

    Time Temperature Precipitation Wind Pressure Humidity
    00:00 +18°C° 0 mm 1 mps 690 mmHg 78%
    01:00 +18°C° 0 mm 1 mps 690 mmHg 80%
    02:00 +18°C° 0 mm 1 mps 690 mmHg 81%
    03:00 +18°C° 0 mm 1 mps 690 mmHg 82%
    04:00 +16°C° 0 mm 1 mps 690 mmHg 82%
    05:00 +18°C° 0.1 mm 1 mps 690 mmHg 80%
    06:00 +17°C° 0.1 mm 0 mps 691 mmHg 78%
    07:00 +19°C° 0 mm 0 mps 691 mmHg 75%
    08:00 +22°C° 0.3 mm 1 mps 691 mmHg 69%
    09:00 +23°C° 0.3 mm 1 mps 692 mmHg 63%
    10:00 +25°C° 0.3 mm 1 mps 692 mmHg 57%
    11:00 +25°C° 0.6 mm 1 mps 692 mmHg 60%
    12:00 +25°C° 0.6 mm 1 mps 692 mmHg 62%
    13:00 +20°C° 0 mm 3 mps 692 mmHg 80%
    14:00 +19°C° 1 mm 2 mps 692 mmHg 82%
    15:00 +19°C° 1 mm 2 mps 692 mmHg 84%
    16:00 +20°C° 1 mm 1 mps 692 mmHg 86%
    17:00 +19°C° 0.9 mm 1 mps 692 mmHg 88%
    18:00 +18°C° 0.9 mm 1 mps 691 mmHg 90%
    19:00 +18°C° 0.9 mm 1 mps 691 mmHg 92%
    20:00 +16°C° 1.4 mm 1 mps 692 mmHg 94%
    21:00 +15°C° 1.4 mm 1 mps 692 mmHg 95%
    22:00 +15°C° 1.4 mm 1 mps 692 mmHg 97%
    23:00 +14°C° 2.3 mm 2 mps 692 mmHg 96%

    Tomorrow, 20 August, Sunday

    Time Temperature Precipitation Wind Pressure Humidity
    00:00 +14°C° 2.3 mm 2 mps 692 mmHg 96%
    01:00 +14°C° 2.3 mm 2 mps 692 mmHg 96%
    02:00 +13°C° 0.8 mm 2 mps 692 mmHg 96%
    03:00 +13°C° 0.8 mm 2 mps 692 mmHg 95%
    04:00 +12°C° 0.8 mm 2 mps 692 mmHg 95%
    05:00 +12°C° 0 mm 2 mps 692 mmHg 94%
    06:00 +13°C° 0 mm 2 mps 692 mmHg 92%
    07:00 +13°C° 0 mm 1 mps 692 mmHg 91%
    08:00 +15°C° 0 mm 2 mps 693 mmHg 80%
    09:00 +17°C° 0 mm 2 mps 693 mmHg 68%
    10:00 +19°C° 0 mm 2 mps 694 mmHg 57%
    11:00 +20°C° 0.2 mm 2 mps 694 mmHg 55%
    12:00 +20°C° 0.2 mm 2 mps 694 mmHg 54%
    13:00 +21°C° 0.2 mm 2 mps 694 mmHg 52%
    14:00 +21°C° 0.3 mm 2 mps 694 mmHg 53%
    15:00 +20°C° 0.3 mm 2 mps 694 mmHg 55%
    16:00 +20°C° 0.3 mm 2 mps 694 mmHg 56%
    17:00 +18°C° 0 mm 2 mps 693 mmHg 62%
    18:00 +16°C° 0 mm 1 mps 693 mmHg 69%
    19:00 +15°C° 0 mm 1 mps 693 mmHg 75%
    20:00 +14°C° 0 mm 1 mps 693 mmHg 77%
    21:00 +13°C° 0 mm 1 mps 694 mmHg 80%
    22:00 +12°C° 0 mm 1 mps 694 mmHg 82%
    23:00 +11°C° 0 mm 1 mps 694 mmHg 83%

    Day after tomorrow, 21 August, Monday

    Time Temperature Precipitation Wind Pressure Humidity
    00:00 +10°C° 0 mm 1 mps 694 mmHg 84%
    01:00 +10°C° 0 mm 1 mps 694 mmHg 85%
    02:00 +10°C° 0 mm 1 mps 694 mmHg 85%
    03:00 +9°C° 0 mm 1 mps 694 mmHg 86%
    04:00 +9°C° 0 mm 1 mps 693 mmHg 86%
    05:00 +10°C° 0 mm 1 mps 694 mmHg 82%
    06:00 +11°C° 0 mm 1 mps 694 mmHg 78%
    07:00 +12°C° 0 mm 1 mps 694 mmHg 73%
    08:00 +15°C° 0 mm 1 mps 695 mmHg 64%
    09:00 +18°C° 0 mm 1 mps 695 mmHg 54%
    10:00 +21°C° 0 mm 1 mps 696 mmHg 44%
    11:00 +22°C° 0 mm 1 mps 695 mmHg 41%
    12:00 +23°C° 0 mm 1 mps 695 mmHg 38%
    13:00 +24°C° 0 mm 1 mps 695 mmHg 35%
    14:00 +24°C° 0 mm 1 mps 695 mmHg 35%
    15:00 +23°C° 0 mm 1 mps 694 mmHg 36%
    16:00 +23°C° 0 mm 1 mps 694 mmHg 36%
    17:00 +21°C° 0 mm 1 mps 694 mmHg 46%
    18:00 +18°C° 0 mm 1 mps 693 mmHg 56%
    19:00 +15°C° 0 mm 1 mps 693 mmHg 66%
    20:00 +14°C° 0 mm 1 mps 693 mmHg 69%
    21:00 +12°C° 0 mm 1 mps 694 mmHg 71%
    22:00 +11°C° 0 mm 1 mps 694 mmHg 74%
    23:00 +11°C° 0 mm 1 mps 694 mmHg 75%

    22 August, Tuesday

    Time Temperature Precipitation Wind Pressure Humidity
    00:00 +11°C° 0 mm 1 mps 694 mmHg 76%
    01:00 +10°C° 0 mm 1 mps 694 mmHg 77%
    02:00 +10°C° 0 mm 1 mps 694 mmHg 78%
    03:00 +10°C° 0 mm 1 mps 694 mmHg 79%
    04:00 +9°C° 0 mm 1 mps 693 mmHg 80%
    05:00 +11°C° 0 mm 1 mps 694 mmHg 76%
    06:00 +11°C° 0 mm 0 mps 694 mmHg 73%
    07:00 +12°C° 0 mm 0 mps 694 mmHg 69%
    08:00 +16°C° 0 mm 1 mps 695 mmHg 61%
    09:00 +19°C° 0 mm 1 mps 695 mmHg 54%
    10:00 +22°C° 0 mm 1 mps 696 mmHg 46%
    11:00 +23°C° 0 mm 1 mps 695 mmHg 44%
    12:00 +24°C° 0 mm 1 mps 695 mmHg 43%
    13:00 +25°C° 0 mm 1 mps 695 mmHg 41%
    14:00 +24°C° 0 mm 1 mps 694 mmHg 43%
    15:00 +24°C° 0 mm 1 mps 694 mmHg 45%
    16:00 +23°C° 0 mm 1 mps 693 mmHg 47%
    17:00 +21°C° 0 mm 1 mps 693 mmHg 56%
    18:00 +19°C° 0 mm 1 mps 692 mmHg 66%
    19:00 +16°C° 0 mm 1 mps 692 mmHg 76%
    20:00 +15°C° 0 mm 1 mps 692 mmHg 79%
    21:00 +14°C° 0 mm 1 mps 692 mmHg 82%
    22:00 +13°C° 0 mm 1 mps 692 mmHg 85%
    23:00 +13°C° 0 mm 1 mps 692 mmHg 86%

    23 August, Wednesday

    Time Temperature Precipitation Wind Pressure Humidity
    00:00 +13°C° 0 mm 1 mps 692 mmHg 86%
    01:00 +11°C° 0 mm 0 mps 692 mmHg 87%
    02:00 +11°C° 0 mm 0 mps 691 mmHg 88%
    03:00 +12°C° 0 mm 1 mps 691 mmHg 89%
    04:00 +12°C° 0 mm 1 mps 691 mmHg 89%
    05:00 +12°C° 0 mm 0 mps 691 mmHg 85%
    06:00 +13°C° 0 mm 0 mps 692 mmHg 81%
    07:00 +14°C° 0 mm 0 mps 692 mmHg 77%
    08:00 +17°C° 0 mm 0 mps 693 mmHg 68%
    09:00 +20°C° 0 mm 0 mps 694 mmHg 59%
    10:00 +25°C° 0 mm 1 mps 694 mmHg 50%
    11:00 +25°C° 0 mm 1 mps 694 mmHg 48%
    12:00 +26°C° 0 mm 1 mps 694 mmHg 46%
    13:00 +27°C° 0 mm 1 mps 694 mmHg 44%
    14:00 +27°C° 0.3 mm 1 mps 694 mmHg 46%
    15:00 +26°C° 0.3 mm 1 mps 694 mmHg 48%
    16:00 +26°C° 0.3 mm 1 mps 694 mmHg 49%
    17:00 +23°C° 0.1 mm 1 mps 693 mmHg 59%
    18:00 +21°C° 0.1 mm 1 mps 693 mmHg 69%
    19:00 +17°C° 0.1 mm 0 mps 693 mmHg 78%
    20:00 +16°C° 0 mm 0 mps 693 mmHg 81%
    21:00 +15°C° 0 mm 0 mps 693 mmHg 84%
    22:00 +15°C° 0 mm 1 mps 693 mmHg 86%
    23:00 +14°C° 0 mm 0 mps 693 mmHg 87%

    24 August, Thursday

    Time Temperature Precipitation Wind Pressure Humidity
    00:00 +13°C° 0 mm 0 mps 693 mmHg 88%
    01:00 +13°C° 0 mm 0 mps 693 mmHg 89%
    02:00 +14°C° 0 mm 1 mps 693 mmHg 89%
    03:00 +14°C° 0 mm 1 mps 692 mmHg 89%
    04:00 +14°C° 0 mm 1 mps 692 mmHg 90%
    05:00 +14°C° 0 mm 0 mps 693 mmHg 86%
    06:00 +15°C° 0 mm 0 mps 693 mmHg 82%
    07:00 +16°C° 0 mm 0 mps 693 mmHg 79%
    08:00 +21°C° 0 mm 1 mps 694 mmHg 68%
    09:00 +23°C° 0 mm 1 mps 694 mmHg 58%
    10:00 +26°C° 0 mm 1 mps 695 mmHg 48%
    11:00 +27°C° 0 mm 1 mps 695 mmHg 45%
    12:00 +28°C° 0 mm 1 mps 695 mmHg 42%
    13:00 +28°C° 0 mm 2 mps 694 mmHg 39%
    14:00 +28°C° 0 mm 2 mps 694 mmHg 40%
    15:00 +28°C° 0 mm 2 mps 694 mmHg 42%
    16:00 +27°C° 0 mm 2 mps 694 mmHg 43%
    17:00 +25°C° 0 mm 2 mps 693 mmHg 53%
    18:00 +22°C° 0 mm 1 mps 693 mmHg 63%
    19:00 +20°C° 0 mm 1 mps 693 mmHg 73%
    20:00 +19°C° 0.1 mm 1 mps 693 mmHg 75%
    21:00 +18°C° 0.1 mm 1 mps 693 mmHg 78%
    22:00 +18°C° 0.1 mm 1 mps 693 mmHg 81%
    23:00 +16°C° 0 mm 1 mps 693 mmHg 82%
    Show more